Regional Weather Roundup
Issued by NWS Newport/Morehead, NC

Current Version | Previous Version | Graphics & Text | Print | Product List | Glossary Off
Versions: 1 2 3 4 5 6 7 8 9 10 11 12 13 14 15 16 17 18 19 20 21 22 23 24 25 26 27 28 29 30 31 32 33 34 35 36 37 38 39 40 41 42 43 44 45 46 47 48 49 50

000
ASUS42 KMHX 221222
RWRMHX
WEATHER ROUNDUP FOR EASTERN NORTH CAROLINA
NATIONAL WEATHER SERVICE NEWPORT/MOREHEAD CITY NC
800 AM EDT MON SEP 22 2014

NOTE: "FAIR" INDICATES FEW OR NO CLOUDS BELOW 12,000 FEET
WITH NO SIGNIFICANT WEATHER AND/OR OBSTRUCTIONS TO VISIBILITY

NCZ015>017-031-032-045>047-102-103-221300-
NORTH COAST

CITY           SKY/WX    TMP DP  RH WIND       PRES   REMARKS
EDENTON        CLOUDY    70  63  77 N7        29.96R
ELIZABETH CITY PTSUNNY   70  65  84 NW10      29.95R
KITTY HAWK     PTSUNNY   73  67  80 NW6       29.93R
MANTEO         PTSUNNY   72  68  86 NW5       29.94R

$$

NCZ045>047-081-094-103-104-221300-
CENTRAL COAST

CITY           SKY/WX    TMP DP  RH WIND       PRES   REMARKS
FRISCO         MOSUNNY   73  70  90 W8        29.94R
SWANQUARTER      N/A     73 N/A N/A NW3G9     29.91S

$$

NCZ095-097-098-100-101-221300-
SOUTHERN COAST

CITY           SKY/WX    TMP DP  RH WIND       PRES   REMARKS
BEAUFORT       MOSUNNY   75  66  73 NW10      29.96R
CEDAR ISLAND     N/A     75 N/A N/A W6G12     30.00R
JACKSONVILLE   MOSUNNY   70  66  87 W5        29.96R
NEWPORT        NOT AVBL
PINEY ISLAND   PTSUNNY   77  67  71 W10       29.95R
WILMINGTON     SUNNY     72  66  81 W5        29.97R


$$

NCZ011>013-027>030-043-044-078>080-089-090>093-098-221300-
COASTAL PLAIN

CITY           SKY/WX    TMP DP  RH WIND       PRES   REMARKS
AHOSKIE        PTSUNNY   66  60  81 CALM      29.99R
CLINTON        MOSUNNY   71  62  73 N6        30.00R
ELIZABETHTOWN  MOSUNNY   73  64  74 NW3       29.99R
GOLDSBORO      PTSUNNY   70  66  88 CALM      29.98R
GREENVILLE     PTSUNNY   70  63  78 CALM      30.00R
HAVELOCK       PTSUNNY   73  66  78 W7        29.97R
KENANSVILLE    MOSUNNY   71  59  67 N6        30.00R
KINSTON        PTSUNNY   70  63  78 N5        29.99R
NEW BERN       PTSUNNY   74  65  73 W6        29.97R
RICHLANDS      PTSUNNY   72  63  73 CALM      29.98R
ROANOKE RAPIDS NOT AVBL
ROCKY MOUNT    PTSUNNY   68  55  63 NW6       29.99R
WASHINGTON     PTSUNNY   69  63  79 NW5       29.98R
WHITEVILLE     SUNNY     72  66  82 CALM      29.98R

$$

AMZ130-135-150-152-154-156-158-170-250-252-270-ANZ085-086-088-633-658-670-221300-
MARINE OBSERVATIONS

STATION/POSITION TIME  TEMP    WIND        PRES    WAVE   SWELL
                       AIR SEA DIR/SP/G            HT/PER HT/PER
                 (UTC) (F)     (DEG/KT/KT) (MB)    (FT/S) (FT/S)
CHESAPEAKE LIGHT 1200   74     350/ 16/ 17 1014.3
BUOY 44014       1200   75 76  340/ 14/ 17 1012.3    5/10   3/10
DUCK             1200   72 75  300/ 10/ 13 1012.9
2E DUCK          1200                        N/A     3/ 9   2/11
OREGON INLET     1200   73 75  280/  5/  7 1013.5
BUOY 44095       1200      74                N/A     5/ 9   2/11
20E OREGON INLET NOT AVBL
HATTERAS CG      NOT AVBL
DIAMOND BUOY     1200   79     270/ 14/ 17 1013.5    7/ 9   3/ 9
CAPE LOOKOUT     1200   76     290/ 11/ 13 1014.2
BEAUFORT LAB     1200   75 75  310/  5/  6 1013.9
30 SE NEW RIVER  1200   79 82  290/ 14/ 17 1013.8    6/ 6   3/ 8
5 SE WRIGHTSVILL 1200   72 79  290/ 16/ 17   N/A
BUOY 41002       1121   80 81  290/ 10/ 12 1017.0    5/ 6   5/ 6
BUOY 41004       1200   81 81  260/ 16/ 17 1015.0    5/ 5   2/ 9

$$


USA.gov is the U.S. government's official web portal to all federal, state and local government web resources and services.